Printer-friendly version

IAU Minor Planet Center

Minor Planet Center

MPEC 2007-F41 : 2007 FL1

The following Minor Planet Electronic Circular may be linked-to from your own Web pages, but must not otherwise be redistributed electronically.


Read MPEC 2007-F40 Read MPEC 2007-F42


M.P.E.C. 2007-F41                                Issued 2007 Mar. 19, 15:45 UT

     The Minor Planet Electronic Circulars contain information on unusual
         minor planets and routine data on comets.  They are published
   on behalf of Commission 20 of the International Astronomical Union by the
          Minor Planet Center, Smithsonian Astrophysical Observatory,
                          Cambridge, MA 02138, U.S.A.

             Prepared using the Tamkin Foundation Computer Network

                              MPC@CFA.HARVARD.EDU
          URL http://cfa-www.harvard.edu/iau/mpc.html  ISSN 1523-6714

                                   2007 FL1

Observations:
     K07F01L* C2007 03 17.45649 16 52 25.79 +29 47 28.3          19.6 V EF041703
     K07F01L  C2007 03 17.47387 16 52 28.24 +29 47 26.0          19.1 V EF041703
     K07F01L  C2007 03 17.48253 16 52 29.72 +29 47 22.0          18.7 V EF041703
     K07F01L  C2007 03 17.50961 16 52 33.74 +29 47 16.5          19.7 V EF041703
     K07F01L  C2007 03 17.51522 16 52 34.53 +29 47 15.7          19.5 V EF041703
     K07F01L  C2007 03 17.52087 16 52 35.50 +29 47 14.2          19.1 V EF041703
     K07F01L  C2007 03 19.42699 16 57 31.75 +29 38 57.8          19.8 V EF041703
     K07F01L  C2007 03 19.43292 16 57 32.65 +29 38 55.1          19.7 V EF041703
     K07F01L  C2007 03 19.43888 16 57 33.62 +29 38 54.2          19.6 V EF041703
     K07F01L  C2007 03 19.44480 16 57 34.56 +29 38 52.5          19.2 V EF041703
     K07F01L 5C2007 03 19.45023 16 57 35.39 +29 38 50.6          19.6 R EF041673
     K07F01L 5C2007 03 19.45336 16 57 35.87 +29 38 49.9                 EF041673
     K07F01L 5C2007 03 19.46053 16 57 36.94 +29 38 47.9                 EF041673
     K07F01L 5C2007 03 19.46447 16 57 37.54 +29 38 46.8                 EF041673

Observer details:
673 Table Mountain Observatory, Wrightwood.  Observer J. Young.  0.61-m f/16
    Cassegrain + CCD.
703 Catalina Sky Survey.  Observer R. A. Kowalski.  Measurers E. C. Beshore,
    E. J. Christensen, G. J. Garradd, A. R. Gibbs, A. D. Grauer, R. E. Hill,
    R. A. Kowalski, S. M. Larson, R. H. McNaught.  0.68-m Schmidt + CCD.

Orbital elements:
2007 FL1                                                 Earth MOID = 0.1322 AU
Epoch 2007 Mar. 1.0 TT = JDT 2454160.5                  MPC
M 346.14515              (2000.0)            P               Q
n   0.17354064     Peri.  179.26182     -0.33485223     +0.80208339
a   3.1832341      Node    71.06526     -0.86717349     -0.05701015
e   0.6401984      Incl.   31.51993     -0.36862465     -0.59448471
P   5.68           H   17.6           G   0.15
From 14 observations 2007 Mar. 17-19.  E-assumed.

Ephemeris:
2007 FL1                 a,e,i = 3.18, 0.64, 32                  q = 1.1453
Date    TT    R. A. (2000) Decl.     Delta      r     Elong.  Phase     V
2007 03 11    16 35.75   +30 06.1    0.849    1.437   102.2    42.5    19.7
2007 03 21    17 01.60   +29 31.1    0.746    1.369   102.6    45.2    19.4
2007 03 31    17 27.76   +28 11.2    0.646    1.307   103.1    48.1    19.0
2007 04 10    17 54.89   +25 39.7    0.549    1.252   103.8    51.0    18.7
2007 04 20    18 24.00   +21 12.8    0.456    1.207   105.2    53.4    18.3
2007 04 30    18 56.81   +13 33.7    0.370    1.173   107.6    54.9    17.8
2007 05 10    19 35.97   +00 49.7    0.300    1.152   111.1    54.8    17.3
2007 05 20    20 24.67   -17 57.2    0.263    1.145   114.4    53.6    17.0
2007 05 30    21 25.41   -38 26.2    0.270    1.153   114.7    53.0    17.0
2007 06 09    22 36.04   -53 27.9    0.317    1.174   112.7    52.9    17.4
2007 06 19    23 46.07   -61 53.1    0.387    1.208   110.7    51.8    17.9
2007 06 29    00 43.02   -66 16.6    0.466    1.254   109.9    49.7    18.3
2007 07 09    01 21.13   -68 51.6    0.547    1.309   109.9    46.9    18.6
2007 07 19    01 39.95   -70 44.6    0.629    1.371   110.7    43.9    19.0
2007 07 29    01 40.31   -72 14.1    0.710    1.439   111.8    40.9    19.3
2007 08 08    01 23.54   -73 14.5    0.791    1.512   113.1    38.1    19.5
2007 08 18    00 53.02   -73 27.2    0.875    1.587   114.3    35.5    19.8
2007 08 28    00 16.88   -72 34.0    0.962    1.665   115.2    33.3    20.0
2007 09 07    23 44.53   -70 32.8    1.056    1.745   115.4    31.5    20.3
2007 09 17    23 21.09   -67 36.0    1.158    1.825   114.9    30.0    20.5
2007 09 27    23 06.98   -64 01.8    1.269    1.905   113.5    28.9    20.8
2007 10 07    23 00.34   -60 07.0    1.391    1.985   111.3    28.0    21.0
2007 10 17    22 59.14   -56 03.5    1.523    2.065   108.2    27.3    21.3
2007 10 27    23 01.83   -51 59.6    1.667    2.144   104.5    26.7    21.6
2007 11 06    23 07.20   -48 00.9    1.821    2.223   100.3    26.0    21.8

Timothy B. Spahr             (C) Copyright 2007 MPC           M.P.E.C. 2007-F41

Read MPEC 2007-F40 Read MPEC 2007-F42


Our Web policy. Index to the CBAT/MPC/ICQ pages.


Valid HTML 4.01!